| time (UTC) | temp C | wind direction | speed KPH | gust KPH | rain 1hr cm | rain 24hr cm | rain mn cm | humidity % | barometer mb |
| 20260906214524 | 28 | 141 | 11.3 | 22.5 | 0.00 | 0.00 | 0.00 | 38 | 1001.7 |
| 20260906214024 | 28 | 139 | 1.6 | 25.7 | 0.00 | 0.00 | 0.00 | 38 | 1001.8 |
| 20260906213523 | 29 | 124 | 9.7 | 22.5 | 0.00 | 0.00 | 0.00 | 37 | 1001.9 |
| 20260906213023 | 29 | 152 | 4.8 | 22.5 | 0.00 | 0.00 | 0.00 | 36 | 1001.9 |
| 20260906212522 | 30 | 151 | 8.0 | 22.5 | 0.00 | 0.00 | 0.00 | 35 | 1002.0 |
| 20260906212021 | 30 | 148 | 6.4 | 20.9 | 0.00 | 0.00 | 0.00 | 34 | 1002.0 |
| 20260906211520 | 31 | 139 | 3.2 | 17.7 | 0.00 | 0.00 | 0.00 | 32 | 1002.0 |
| 20260906211019 | 31 | 147 | 6.4 | 17.7 | 0.00 | 0.00 | 0.00 | 32 | 1002.1 |
| 20260906210518 | 31 | 143 | 3.2 | 17.7 | 0.00 | 0.00 | 0.00 | 31 | 1002.1 |
| 20260906210020 | 31 | 147 | 1.6 | 20.9 | 0.00 | 0.00 | 0.00 | 31 | 1002.3 |
| 20260906205517 | 31 | 146 | 6.4 | 25.7 | 0.00 | 0.00 | 0.00 | 31 | 1002.3 |
| 20260906205017 | 31 | 159 | 9.7 | 25.7 | 0.00 | 0.00 | 0.00 | 32 | 1002.3 |
| 20260906204614 | 31 | 143 | 6.4 | 24.1 | 0.00 | 0.00 | 0.00 | 32 | 1002.4 |
| 20260906204014 | 30 | 156 | 4.8 | 24.1 | 0.00 | 0.00 | 0.00 | 34 | 1002.5 |
| 20260906203514 | 30 | 141 | 9.7 | 32.2 | 0.00 | 0.00 | 0.00 | 33 | 1002.4 |
| 20260906203014 | 30 | 146 | 16.1 | 32.2 | 0.00 | 0.00 | 0.00 | 35 | 1002.6 |
| 20260906202513 | 30 | 143 | 3.2 | 29.0 | 0.00 | 0.00 | 0.00 | 35 | 1002.7 |
| 20260906202014 | 30 | 143 | 8.0 | 29.0 | 0.00 | 0.00 | 0.00 | 34 | 1002.7 |
| 20260906201512 | 30 | 143 | 3.2 | 24.1 | 0.00 | 0.00 | 0.00 | 34 | 1002.6 |
| 20260906201012 | 30 | 138 | 9.7 | 27.4 | 0.00 | 0.00 | 0.00 | 34 | 1002.7 |
| 20260906200511 | 30 | 146 | 8.0 | 27.4 | 0.00 | 0.00 | 0.00 | 33 | 1002.7 |
| 20260906200011 | 30 | 141 | 9.7 | 22.5 | 0.00 | 0.00 | 0.00 | 34 | 1002.8 |
| 20260906195510 | 30 | 141 | 8.0 | 20.9 | 0.00 | 0.00 | 0.00 | 35 | 1002.8 |
| 20260906195009 | 30 | 147 | 6.4 | 20.9 | 0.00 | 0.00 | 0.00 | 34 | 1002.9 |
| 20260906194516 | 31 | 148 | 0.0 | 19.3 | 0.00 | 0.00 | 0.00 | 34 | 1002.9 |
| 20260906194009 | 31 | 148 | 4.8 | 19.3 | 0.00 | 0.00 | 0.00 | 35 | 1003.0 |
| 20260906193507 | 30 | 141 | 9.7 | 17.7 | 0.00 | 0.00 | 0.00 | 34 | 1003.1 |
| 20260906193006 | 30 | 147 | 9.7 | 20.9 | 0.00 | 0.00 | 0.00 | 34 | 1003.3 |
| 20260906192505 | 30 | 139 | 8.0 | 25.7 | 0.00 | 0.00 | 0.00 | 35 | 1003.3 |
| 20260906192004 | 30 | 136 | 6.4 | 25.7 | 0.00 | 0.00 | 0.00 | 35 | 1003.3 |
| 20260906191506 | 30 | 146 | 14.5 | 22.5 | 0.00 | 0.00 | 0.00 | 34 | 1003.5 |
| 20260906191004 | 30 | 145 | 8.0 | 19.3 | 0.00 | 0.00 | 0.00 | 34 | 1003.5 |
| 20260906190502 | 30 | 148 | 9.7 | 20.9 | 0.00 | 0.00 | 0.00 | 34 | 1003.6 |
| 20260906190006 | 30 | 149 | 4.8 | 20.9 | 0.00 | 0.00 | 0.00 | 35 | 1003.6 |
| 20260906185501 | 30 | 148 | 0.0 | 14.5 | 0.00 | 0.00 | 0.00 | 35 | 1003.8 |
| 20260906185100 | 30 | 148 | 1.6 | 14.5 | 0.00 | 0.00 | 0.00 | 36 | 1003.8 |
| 20260906184601 | 30 | 152 | 1.6 | 9.7 | 0.00 | 0.00 | 0.00 | 36 | 1004.0 |
| 20260906184057 | 30 | 174 | 0.0 | 16.1 | 0.00 | 0.00 | 0.00 | 35 | 1004.1 |
| 20260906183557 | 29 | 174 | 1.6 | 16.1 | 0.00 | 0.00 | 0.00 | 35 | 1004.2 |
| 20260906183100 | 29 | 182 | 3.2 | 14.5 | 0.00 | 0.00 | 0.00 | 36 | 1004.4 |
| 20260906182559 | 29 | 184 | 0.0 | 16.1 | 0.00 | 0.00 | 0.00 | 36 | 1004.5 |
| 20260906182053 | 29 | 186 | 0.0 | 16.1 | 0.00 | 0.00 | 0.00 | 37 | 1004.6 |
| 20260906181609 | 29 | 193 | 0.0 | 14.5 | 0.00 | 0.00 | 0.00 | 37 | 1004.7 |
| 20260906181054 | 29 | 231 | 0.0 | 0.0 | 0.00 | 0.00 | 0.00 | 36 | 1004.9 |
| 20260906180551 | 28 | 254 | 0.0 | 0.0 | 0.00 | 0.00 | 0.00 | 38 | 1005.1 |
| 20260906180050 | 28 | 254 | 0.0 | 0.0 | 0.00 | 0.00 | 0.00 | 36 | 1005.2 |
| 20260906175551 | 28 | 254 | 0.0 | 0.0 | 0.00 | 0.00 | 0.00 | 37 | 1005.3 |
| 20260906175048 | 28 | 254 | 0.0 | 0.0 | 0.00 | 0.00 | 0.00 | 40 | 1005.4 |
| 20260906174545 | 28 | 254 | 0.0 | 0.0 | 0.00 | 0.00 | 0.00 | 38 | 1005.4 |
| 20260906174044 | 28 | 254 | 0.0 | 0.0 | 0.00 | 0.00 | 0.00 | 39 | 1005.5 |
| 20260906173542 | 27 | 254 | 0.0 | 1.6 | 0.00 | 0.00 | 0.00 | 41 | 1005.5 |
| 20260906173041 | 27 | 254 | 0.0 | 1.6 | 0.00 | 0.00 | 0.00 | 39 | 1005.7 |
| 20260906172540 | 27 | 254 | 0.0 | 0.0 | 0.00 | 0.00 | 0.00 | 43 | 1005.8 |
| 20260906172039 | 27 | 254 | 0.0 | 0.0 | 0.00 | 0.00 | 0.00 | 43 | 1005.9 |
| 20260906171538 | 27 | 254 | 0.0 | 0.0 | 0.00 | 0.00 | 0.00 | 46 | 1006.0 |
| 20260906171036 | 26 | 254 | 0.0 | 0.0 | 0.00 | 0.00 | 0.00 | 45 | 1005.9 |
| 20260906170537 | 26 | 254 | 0.0 | 11.3 | 0.00 | 0.00 | 0.00 | 43 | 1005.9 |
| 20260906170034 | 26 | 254 | 0.0 | 0.0 | 0.00 | 0.00 | 0.00 | 42 | 1005.9 |
| 20260906165533 | 26 | 254 | 0.0 | 0.0 | 0.00 | 0.00 | 0.00 | 45 | 1005.9 |
| 20260906165032 | 26 | 254 | 0.0 | 0.0 | 0.00 | 0.00 | 0.00 | 45 | 1005.9 |
| 20260906164531 | 26 | 254 | 0.0 | 0.0 | 0.00 | 0.00 | 0.00 | 45 | 1005.9 |
| 20260906164030 | 26 | 254 | 0.0 | 0.0 | 0.00 | 0.00 | 0.00 | 47 | 1006.0 |
| 20260906163529 | 26 | 254 | 0.0 | 0.0 | 0.00 | 0.00 | 0.00 | 48 | 1006.2 |
| 20260906163029 | 26 | 268 | 0.0 | 0.0 | 0.00 | 0.00 | 0.00 | 48 | 1006.2 |
| 20260906162528 | 25 | 268 | 0.0 | 0.0 | 0.00 | 0.00 | 0.00 | 47 | 1006.3 |
| 20260906162027 | 25 | 268 | 0.0 | 0.0 | 0.00 | 0.00 | 0.00 | 47 | 1006.4 |
| 20260906161529 | 25 | 268 | 0.0 | 0.0 | 0.00 | 0.00 | 0.00 | 49 | 1006.3 |
| 20260906161024 | 24 | 268 | 0.0 | 0.0 | 0.00 | 0.00 | 0.00 | 52 | 1006.3 |
| 20260906160521 | 24 | 268 | 0.0 | 0.0 | 0.00 | 0.00 | 0.00 | 47 | 1006.3 |
| 20260906160019 | 24 | 268 | 0.0 | 0.0 | 0.00 | 0.00 | 0.00 | 54 | 1006.2 |
| 20260906155519 | 23 | 268 | 0.0 | 0.0 | 0.00 | 0.00 | 0.00 | 55 | 1006.2 |
| 20260906155018 | 23 | 268 | 0.0 | 0.0 | 0.00 | 0.00 | 0.00 | 57 | 1006.2 |
| 20260906154516 | 23 | 268 | 0.0 | 0.0 | 0.00 | 0.00 | 0.00 | 58 | 1006.3 |
| 20260906154015 | 22 | 268 | 0.0 | 0.0 | 0.00 | 0.00 | 0.00 | 60 | 1006.4 |
| 20260906153512 | 22 | 268 | 0.0 | 0.0 | 0.00 | 0.00 | 0.00 | 59 | 1006.4 |
| 20260906153013 | 22 | 268 | 0.0 | 0.0 | 0.00 | 0.00 | 0.00 | 60 | 1006.4 |
| 20260906152511 | 22 | 268 | 0.0 | 0.0 | 0.00 | 0.00 | 0.00 | 63 | 1006.4 |
| 20260906152008 | 21 | 268 | 0.0 | 0.0 | 0.00 | 0.00 | 0.00 | 62 | 1006.3 |
| 20260906151508 | 21 | 268 | 0.0 | 0.0 | 0.00 | 0.00 | 0.00 | 64 | 1006.3 |
| 20260906151009 | 21 | 268 | 0.0 | 0.0 | 0.00 | 0.00 | 0.00 | 64 | 1006.3 |
| 20260906150505 | 21 | 268 | 0.0 | 0.0 | 0.00 | 0.00 | 0.00 | 66 | 1006.3 |
| 20260906150004 | 21 | 268 | 0.0 | 11.3 | 0.00 | 0.00 | 0.00 | 68 | 1006.4 |
| 20260906145602 | 20 | 268 | 0.0 | 11.3 | 0.00 | 0.00 | 0.00 | 67 | 1006.4 |
| 20260906145001 | 20 | 268 | 0.0 | 6.4 | 0.00 | 0.00 | 0.00 | 66 | 1006.4 |
| 20260906144600 | 20 | 269 | 0.0 | 0.0 | 0.00 | 0.00 | 0.00 | 66 | 1006.3 |
| 20260906144058 | 20 | 268 | 0.0 | 0.0 | 0.00 | 0.00 | 0.00 | 68 | 1006.3 |
| 20260906143557 | 19 | 269 | 0.0 | 0.0 | 0.00 | 0.00 | 0.00 | 67 | 1006.4 |
| 20260906143057 | 19 | 269 | 0.0 | 0.0 | 0.00 | 0.00 | 0.00 | 69 | 1006.4 |
| 20260906142554 | 18 | 269 | 0.0 | 0.0 | 0.00 | 0.00 | 0.00 | 70 | 1006.5 |
| 20260906142053 | 18 | 269 | 0.0 | 0.0 | 0.00 | 0.00 | 0.00 | 70 | 1006.6 |
| 20260906141553 | 17 | 269 | 0.0 | 0.0 | 0.00 | 0.00 | 0.00 | 71 | 1006.6 |
| 20260906141050 | 17 | 269 | 0.0 | 0.0 | 0.00 | 0.00 | 0.00 | 70 | 1006.6 |
| 20260906140548 | 17 | 269 | 0.0 | 0.0 | 0.00 | 0.00 | 0.00 | 70 | 1006.7 |
| 20260906140059 | 16 | 269 | 0.0 | 0.0 | 0.00 | 0.00 | 0.00 | 72 | 1006.7 |
| 20260906135545 | 16 | 269 | 0.0 | 0.0 | 0.00 | 0.00 | 0.00 | 72 | 1006.5 |
| 20260906135047 | 15 | 269 | 0.0 | 0.0 | 0.00 | 0.00 | 0.00 | 75 | 1006.4 |
| 20260906134544 | 15 | 269 | 0.0 | 0.0 | 0.00 | 0.00 | 0.00 | 78 | 1006.3 |
| 20260906134040 | 14 | 269 | 0.0 | 0.0 | 0.00 | 0.00 | 0.00 | 79 | 1006.3 |
| 20260906133538 | 13 | 269 | 0.0 | 0.0 | 0.00 | 0.00 | 0.00 | 80 | 1006.4 |
| 20260906133039 | 13 | 269 | 0.0 | 0.0 | 0.00 | 0.00 | 0.00 | 82 | 1006.3 |
| 20260906132539 | 12 | 269 | 0.0 | 0.0 | 0.00 | 0.00 | 0.00 | 83 | 1006.2 |
| 20260906132034 | 12 | 269 | 0.0 | 0.0 | 0.00 | 0.00 | 0.00 | 84 | 1006.2 |
| 20260906131533 | 12 | 269 | 0.0 | 0.0 | 0.00 | 0.00 | 0.00 | 84 | 1006.1 |
| 20260906131030 | 12 | 269 | 0.0 | 0.0 | 0.00 | 0.00 | 0.00 | 84 | 1006.1 |
| 20260906130533 | 11 | 269 | 0.0 | 0.0 | 0.00 | 0.00 | 0.00 | 83 | 1006.1 |
| 20260906130028 | 11 | 269 | 0.0 | 0.0 | 0.00 | 0.00 | 0.00 | 82 | 1006.2 |
| 20260906125527 | 11 | 270 | 0.0 | 0.0 | 0.00 | 0.00 | 0.00 | 82 | 1006.3 |
| 20260906125026 | 11 | 269 | 0.0 | 0.0 | 0.00 | 0.00 | 0.00 | 81 | 1006.1 |
| 20260906124524 | 11 | 269 | 0.0 | 0.0 | 0.00 | 0.00 | 0.00 | 80 | 1006.2 |
| 20260906124023 | 12 | 270 | 0.0 | 0.0 | 0.00 | 0.00 | 0.00 | 80 | 1006.2 |
| 20260906123523 | 12 | 270 | 0.0 | 0.0 | 0.00 | 0.00 | 0.00 | 82 | 1006.2 |
| 20260906123028 | 12 | 270 | 0.0 | 0.0 | 0.00 | 0.00 | 0.00 | 81 | 1006.1 |
| 20260906122521 | 12 | 270 | 0.0 | 0.0 | 0.00 | 0.00 | 0.00 | 80 | 1006.0 |
| 20260906122023 | 12 | 270 | 0.0 | 0.0 | 0.00 | 0.00 | 0.00 | 79 | 1005.9 |
| 20260906121526 | 12 | 270 | 0.0 | 0.0 | 0.00 | 0.00 | 0.00 | 80 | 1005.9 |
| 20260906121018 | 12 | 270 | 0.0 | 0.0 | 0.00 | 0.00 | 0.00 | 79 | 1005.8 |
| 20260906120518 | 12 | 270 | 0.0 | 0.0 | 0.00 | 0.00 | 0.00 | 79 | 1005.6 |
| 20260906120017 | 12 | 269 | 0.0 | 0.0 | 0.00 | 0.00 | 0.00 | 78 | 1005.6 |
| 20260906115517 | 12 | 270 | 0.0 | 0.0 | 0.00 | 0.00 | 0.00 | 77 | 1005.7 |
| 20260906115015 | 12 | 270 | 0.0 | 0.0 | 0.00 | 0.00 | 0.00 | 76 | 1005.7 |
| 20260906114533 | 12 | 270 | 0.0 | 0.0 | 0.00 | 0.00 | 0.00 | 77 | 1005.6 |
| 20260906114013 | 12 | 269 | 0.0 | 0.0 | 0.00 | 0.00 | 0.00 | 75 | 1005.6 |
| 20260906113513 | 12 | 270 | 0.0 | 0.0 | 0.00 | 0.00 | 0.00 | 76 | 1005.5 |
| 20260906113013 | 12 | 269 | 0.0 | 0.0 | 0.00 | 0.00 | 0.00 | 76 | 1005.5 |
| 20260906112511 | 12 | 270 | 0.0 | 0.0 | 0.00 | 0.00 | 0.00 | 75 | 1005.4 |
| 20260906112011 | 13 | 269 | 0.0 | 0.0 | 0.00 | 0.00 | 0.00 | 75 | 1005.2 |
| 20260906111521 | 13 | 269 | 0.0 | 0.0 | 0.00 | 0.00 | 0.00 | 74 | 1005.4 |
| 20260906111009 | 13 | 269 | 0.0 | 0.0 | 0.00 | 0.00 | 0.00 | 74 | 1005.4 |
| 20260906110510 | 13 | 269 | 0.0 | 0.0 | 0.00 | 0.00 | 0.00 | 73 | 1005.3 |
| 20260906110009 | 13 | 270 | 0.0 | 0.0 | 0.00 | 0.00 | 0.00 | 73 | 1005.3 |
| 20260906105509 | 13 | 269 | 0.0 | 0.0 | 0.00 | 0.00 | 0.00 | 74 | 1005.3 |
| 20260906105007 | 13 | 269 | 0.0 | 0.0 | 0.00 | 0.00 | 0.00 | 73 | 1005.2 |
| 20260906104509 | 13 | 269 | 0.0 | 0.0 | 0.00 | 0.00 | 0.00 | 73 | 1005.1 |
| 20260906104004 | 13 | 269 | 0.0 | 0.0 | 0.00 | 0.00 | 0.00 | 72 | 1005.0 |
| 20260906103503 | 13 | 269 | 0.0 | 0.0 | 0.00 | 0.00 | 0.00 | 72 | 1005.0 |
| 20260906103004 | 13 | 269 | 0.0 | 0.0 | 0.00 | 0.00 | 0.00 | 73 | 1005.0 |
| 20260906102503 | 13 | 269 | 0.0 | 0.0 | 0.00 | 0.00 | 0.00 | 72 | 1005.0 |
| 20260906102002 | 13 | 269 | 0.0 | 0.0 | 0.00 | 0.00 | 0.00 | 72 | 1005.0 |
| 20260906101501 | 14 | 269 | 0.0 | 0.0 | 0.00 | 0.00 | 0.00 | 72 | 1005.0 |
| 20260906101001 | 14 | 269 | 0.0 | 0.0 | 0.00 | 0.00 | 0.00 | 71 | 1005.0 |
| 20260906100600 | 14 | 269 | 0.0 | 0.0 | 0.00 | 0.00 | 0.00 | 70 | 1005.0 |
| 20260906100059 | 14 | 269 | 0.0 | 0.0 | 0.00 | 0.00 | 0.00 | 70 | 1004.8 |
| 20260906095558 | 15 | 269 | 0.0 | 0.0 | 0.00 | 0.00 | 0.00 | 69 | 1004.6 |
| 20260906095057 | 15 | 269 | 0.0 | 0.0 | 0.00 | 0.00 | 0.00 | 69 | 1004.6 |
| 20260906094556 | 15 | 269 | 0.0 | 0.0 | 0.00 | 0.00 | 0.00 | 68 | 1004.7 |
| 20260906094054 | 15 | 269 | 0.0 | 0.0 | 0.00 | 0.00 | 0.00 | 67 | 1004.7 |
| 20260906093554 | 15 | 269 | 0.0 | 0.0 | 0.00 | 0.00 | 0.00 | 67 | 1004.6 |
| 20260906093053 | 15 | 269 | 0.0 | 0.0 | 0.00 | 0.00 | 0.00 | 66 | 1004.5 |
| 20260906092552 | 15 | 269 | 0.0 | 0.0 | 0.00 | 0.00 | 0.00 | 66 | 1004.7 |
| 20260906092051 | 15 | 269 | 0.0 | 0.0 | 0.00 | 0.00 | 0.00 | 66 | 1004.8 |
| 20260906091551 | 16 | 269 | 0.0 | 0.0 | 0.00 | 0.00 | 0.00 | 66 | 1004.6 |
| 20260906091049 | 16 | 269 | 0.0 | 0.0 | 0.00 | 0.00 | 0.00 | 64 | 1004.6 |
| 20260906090548 | 16 | 269 | 0.0 | 0.0 | 0.00 | 0.00 | 0.00 | 64 | 1004.5 |
| 20260906090047 | 16 | 269 | 0.0 | 0.0 | 0.00 | 0.00 | 0.00 | 63 | 1004.4 |
| 20260906085548 | 16 | 269 | 0.0 | 0.0 | 0.00 | 0.00 | 0.00 | 63 | 1004.3 |
| 20260906085045 | 16 | 269 | 0.0 | 0.0 | 0.00 | 0.00 | 0.00 | 63 | 1004.4 |
| 20260906084545 | 16 | 269 | 0.0 | 0.0 | 0.00 | 0.00 | 0.00 | 63 | 1004.5 |
| 20260906084044 | 17 | 269 | 0.0 | 0.0 | 0.00 | 0.00 | 0.00 | 63 | 1004.5 |
| 20260906083543 | 17 | 269 | 0.0 | 0.0 | 0.00 | 0.00 | 0.00 | 62 | 1004.4 |
| 20260906083043 | 17 | 269 | 0.0 | 0.0 | 0.00 | 0.00 | 0.00 | 62 | 1004.4 |
| 20260906082542 | 17 | 269 | 0.0 | 0.0 | 0.00 | 0.00 | 0.00 | 62 | 1004.4 |
| 20260906082042 | 17 | 269 | 0.0 | 0.0 | 0.00 | 0.00 | 0.00 | 62 | 1004.6 |
| 20260906081543 | 17 | 269 | 0.0 | 0.0 | 0.00 | 0.00 | 0.00 | 62 | 1004.6 |
| 20260906081045 | 17 | 269 | 0.0 | 0.0 | 0.00 | 0.00 | 0.00 | 62 | 1004.6 |
| 20260906080543 | 17 | 269 | 0.0 | 0.0 | 0.00 | 0.00 | 0.00 | 63 | 1004.6 |
| 20260906080039 | 17 | 269 | 0.0 | 0.0 | 0.00 | 0.00 | 0.00 | 62 | 1004.5 |
| 20260906075538 | 17 | 269 | 0.0 | 0.0 | 0.00 | 0.00 | 0.00 | 61 | 1004.6 |
| 20260906075037 | 17 | 269 | 0.0 | 0.0 | 0.00 | 0.00 | 0.00 | 61 | 1004.5 |
| 20260906074540 | 18 | 269 | 0.0 | 0.0 | 0.00 | 0.00 | 0.00 | 60 | 1004.5 |
| 20260906074033 | 18 | 269 | 0.0 | 0.0 | 0.00 | 0.00 | 0.00 | 59 | 1004.5 |
| 20260906073536 | 18 | 269 | 0.0 | 0.0 | 0.00 | 0.00 | 0.00 | 59 | 1004.4 |
| 20260906073033 | 18 | 269 | 0.0 | 0.0 | 0.00 | 0.00 | 0.00 | 59 | 1004.4 |
| 20260906072530 | 18 | 269 | 0.0 | 0.0 | 0.00 | 0.00 | 0.00 | 58 | 1004.3 |
| 20260906072029 | 18 | 269 | 0.0 | 0.0 | 0.00 | 0.00 | 0.00 | 57 | 1004.2 |
| 20260906071531 | 19 | 269 | 0.0 | 0.0 | 0.00 | 0.00 | 0.00 | 57 | 1004.2 |
| 20260906071027 | 19 | 269 | 0.0 | 0.0 | 0.00 | 0.00 | 0.00 | 56 | 1004.2 |
| 20260906070529 | 20 | 269 | 0.0 | 0.0 | 0.00 | 0.00 | 0.00 | 55 | 1004.1 |
| 20260906070025 | 20 | 269 | 0.0 | 0.0 | 0.00 | 0.00 | 0.00 | 54 | 1004.1 |
| 20260906065525 | 20 | 269 | 0.0 | 0.0 | 0.00 | 0.00 | 0.00 | 53 | 1004.1 |
| 20260906065023 | 20 | 269 | 0.0 | 0.0 | 0.00 | 0.00 | 0.00 | 53 | 1004.0 |
| 20260906064527 | 20 | 269 | 0.0 | 0.0 | 0.00 | 0.00 | 0.00 | 52 | 1004.1 |
| 20260906064024 | 20 | 269 | 0.0 | 0.0 | 0.00 | 0.00 | 0.00 | 52 | 1004.0 |
| 20260906063622 | 20 | 269 | 0.0 | 0.0 | 0.00 | 0.00 | 0.00 | 52 | 1004.1 |
| 20260906063021 | 20 | 269 | 0.0 | 0.0 | 0.00 | 0.00 | 0.00 | 52 | 1004.1 |
| 20260906062520 | 20 | 269 | 0.0 | 0.0 | 0.00 | 0.00 | 0.00 | 52 | 1004.1 |
| 20260906062020 | 20 | 269 | 0.0 | 0.0 | 0.00 | 0.00 | 0.00 | 51 | 1004.0 |
| 20260906061619 | 20 | 269 | 0.0 | 0.0 | 0.00 | 0.00 | 0.00 | 51 | 1004.0 |
| 20260906061019 | 20 | 269 | 0.0 | 0.0 | 0.00 | 0.00 | 0.00 | 50 | 1004.0 |
| 20260906060518 | 20 | 269 | 0.0 | 0.0 | 0.00 | 0.00 | 0.00 | 52 | 1004.1 |
| 20260906060017 | 20 | 269 | 0.0 | 11.3 | 0.00 | 0.00 | 0.00 | 52 | 1004.3 |
| 20260906055517 | 20 | 269 | 0.0 | 14.5 | 0.00 | 0.00 | 0.00 | 52 | 1004.4 |
| 20260906055020 | 20 | 269 | 0.0 | 24.1 | 0.00 | 0.00 | 0.00 | 50 | 1004.5 |
| 20260906054517 | 20 | 263 | 6.4 | 24.1 | 0.00 | 0.00 | 0.00 | 50 | 1004.6 |
| 20260906054016 | 20 | 250 | 0.0 | 16.1 | 0.00 | 0.00 | 0.00 | 51 | 1004.7 |
| 20260906053520 | 20 | 135 | 0.0 | 0.0 | 0.00 | 0.00 | 0.00 | 50 | 1004.7 |
| 20260906053017 | 20 | 135 | 0.0 | 0.0 | 0.00 | 0.00 | 0.00 | 49 | 1004.6 |
| 20260906052517 | 20 | 135 | 0.0 | 0.0 | 0.00 | 0.00 | 0.00 | 50 | 1004.7 |
| 20260906052016 | 20 | 135 | 0.0 | 0.0 | 0.00 | 0.00 | 0.00 | 49 | 1004.6 |
| 20260906051517 | 20 | 135 | 0.0 | 0.0 | 0.00 | 0.00 | 0.00 | 48 | 1004.7 |
| 20260906051016 | 20 | 135 | 0.0 | 0.0 | 0.00 | 0.00 | 0.00 | 47 | 1004.6 |
| 20260906050516 | 20 | 135 | 0.0 | 0.0 | 0.00 | 0.00 | 0.00 | 47 | 1004.6 |
| 20260906050017 | 20 | 135 | 0.0 | 0.0 | 0.00 | 0.00 | 0.00 | 47 | 1004.7 |
| 20260906045519 | 20 | 135 | 0.0 | 0.0 | 0.00 | 0.00 | 0.00 | 46 | 1004.8 |
| 20260906045019 | 21 | 135 | 0.0 | 0.0 | 0.00 | 0.00 | 0.00 | 46 | 1004.8 |
| 20260906044514 | 21 | 135 | 0.0 | 0.0 | 0.00 | 0.00 | 0.00 | 45 | 1004.9 |
| 20260906044019 | 21 | 135 | 0.0 | 0.0 | 0.00 | 0.00 | 0.00 | 44 | 1004.9 |
| 20260906043516 | 21 | 135 | 0.0 | 0.0 | 0.00 | 0.00 | 0.00 | 44 | 1005.0 |
| 20260906043014 | 21 | 135 | 0.0 | 0.0 | 0.00 | 0.00 | 0.00 | 44 | 1005.0 |
| 20260906042515 | 21 | 135 | 0.0 | 0.0 | 0.00 | 0.00 | 0.00 | 44 | 1004.9 |
| 20260906042013 | 21 | 135 | 0.0 | 0.0 | 0.00 | 0.00 | 0.00 | 45 | 1004.9 |
| 20260906041520 | 22 | 135 | 0.0 | 0.0 | 0.00 | 0.00 | 0.00 | 43 | 1004.8 |
| 20260906041016 | 22 | 135 | 0.0 | 0.0 | 0.00 | 0.00 | 0.00 | 43 | 1004.7 |
| 20260906040513 | 22 | 135 | 0.0 | 0.0 | 0.00 | 0.00 | 0.00 | 42 | 1004.9 |
| 20260906040024 | 22 | 135 | 0.0 | 0.0 | 0.00 | 0.00 | 0.00 | 42 | 1004.9 |
| 20260906035515 | 22 | 135 | 0.0 | 0.0 | 0.00 | 0.00 | 0.00 | 41 | 1005.0 |
| 20260906035012 | 22 | 135 | 0.0 | 0.0 | 0.00 | 0.00 | 0.00 | 40 | 1005.1 |
| 20260906034513 | 22 | 135 | 0.0 | 0.0 | 0.00 | 0.00 | 0.00 | 39 | 1005.0 |
| 20260906034011 | 22 | 135 | 0.0 | 0.0 | 0.00 | 0.00 | 0.00 | 39 | 1004.9 |
| 20260906033514 | 22 | 135 | 0.0 | 17.7 | 0.00 | 0.00 | 0.00 | 39 | 1004.8 |
| 20260906033010 | 22 | 135 | 4.8 | 17.7 | 0.00 | 0.00 | 0.00 | 39 | 1004.7 |
| 20260906032517 | 21 | 144 | 8.0 | 27.4 | 0.00 | 0.00 | 0.00 | 41 | 1004.7 |
| 20260906032021 | 21 | 148 | 9.7 | 27.4 | 0.00 | 0.00 | 0.00 | 44 | 1004.6 |
| 20260906031509 | 21 | 193 | 0.0 | 0.0 | 0.00 | 0.00 | 0.00 | 43 | 1004.0 |
| 20260906031008 | 21 | 193 | 0.0 | 0.0 | 0.00 | 0.00 | 0.00 | 42 | 1003.6 |
| 20260906030510 | 21 | 193 | 0.0 | 0.0 | 0.00 | 0.00 | 0.00 | 43 | 1003.4 |
| 20260906030008 | 21 | 193 | 0.0 | 0.0 | 0.00 | 0.00 | 0.00 | 42 | 1003.4 |
| 20260906025512 | 21 | 193 | 0.0 | 0.0 | 0.00 | 0.00 | 0.00 | 41 | 1003.3 |
| 20260906025009 | 21 | 193 | 0.0 | 0.0 | 0.00 | 0.00 | 0.00 | 41 | 1003.2 |
| 20260906024507 | 22 | 193 | 0.0 | 0.0 | 0.00 | 0.00 | 0.00 | 40 | 1003.0 |
| 20260906024006 | 22 | 193 | 0.0 | 0.0 | 0.00 | 0.00 | 0.00 | 40 | 1003.0 |
| 20260906023508 | 22 | 193 | 0.0 | 0.0 | 0.00 | 0.00 | 0.00 | 40 | 1003.0 |
| 20260906023006 | 23 | 193 | 0.0 | 0.0 | 0.00 | 0.00 | 0.00 | 39 | 1002.8 |
| 20260906022506 | 23 | 193 | 0.0 | 0.0 | 0.00 | 0.00 | 0.00 | 39 | 1002.7 |
| 20260906022007 | 23 | 193 | 0.0 | 0.0 | 0.00 | 0.00 | 0.00 | 37 | 1002.7 |
| 20260906021507 | 24 | 193 | 0.0 | 0.0 | 0.00 | 0.00 | 0.00 | 37 | 1002.6 |
| 20260906021006 | 25 | 193 | 0.0 | 0.0 | 0.00 | 0.00 | 0.00 | 35 | 1002.5 |
| 20260906020506 | 25 | 193 | 0.0 | 0.0 | 0.00 | 0.00 | 0.00 | 35 | 1002.5 |
| 20260906020006 | 25 | 193 | 0.0 | 0.0 | 0.00 | 0.00 | 0.00 | 36 | 1002.5 |
| 20260906015506 | 26 | 193 | 0.0 | 0.0 | 0.00 | 0.00 | 0.00 | 34 | 1002.5 |
| 20260906015006 | 26 | 193 | 0.0 | 0.0 | 0.00 | 0.00 | 0.00 | 33 | 1002.5 |
| 20260906014510 | 26 | 193 | 0.0 | 0.0 | 0.00 | 0.00 | 0.00 | 31 | 1002.4 |
| 20260906014005 | 27 | 193 | 0.0 | 0.0 | 0.00 | 0.00 | 0.00 | 32 | 1002.4 |
| 20260906013505 | 27 | 193 | 0.0 | 0.0 | 0.00 | 0.00 | 0.00 | 32 | 1002.3 |
| 20260906013006 | 27 | 193 | 0.0 | 0.0 | 0.00 | 0.00 | 0.00 | 30 | 1002.3 |
| 20260906012505 | 27 | 193 | 0.0 | 0.0 | 0.00 | 0.00 | 0.00 | 29 | 1002.2 |
| 20260906012008 | 27 | 193 | 0.0 | 0.0 | 0.00 | 0.00 | 0.00 | 29 | 1002.2 |
| 20260906011505 | 27 | 193 | 0.0 | 1.6 | 0.00 | 0.00 | 0.00 | 29 | 1002.3 |
| 20260906011104 | 27 | 193 | 0.0 | 1.6 | 0.00 | 0.00 | 0.00 | 29 | 1002.3 |
| 20260906010504 | 27 | 193 | 0.0 | 0.0 | 0.00 | 0.00 | 0.00 | 29 | 1002.3 |
| 20260906010004 | 28 | 193 | 0.0 | 0.0 | 0.00 | 0.00 | 0.00 | 29 | 1002.3 |
| 20260906005504 | 28 | 193 | 0.0 | 0.0 | 0.00 | 0.00 | 0.00 | 28 | 1002.3 |
| 20260906005004 | 28 | 193 | 0.0 | 0.0 | 0.00 | 0.00 | 0.00 | 28 | 1002.4 |
| 20260906004504 | 28 | 193 | 0.0 | 0.0 | 0.00 | 0.00 | 0.00 | 28 | 1002.4 |
| 20260906004003 | 28 | 193 | 0.0 | 0.0 | 0.00 | 0.00 | 0.00 | 28 | 1002.4 |
| 20260906003504 | 28 | 193 | 0.0 | 0.0 | 0.00 | 0.00 | 0.00 | 28 | 1002.3 |
| 20260906003003 | 28 | 193 | 0.0 | 0.0 | 0.00 | 0.00 | 0.00 | 28 | 1002.3 |
| 20260906002503 | 28 | 193 | 0.0 | 1.6 | 0.00 | 0.00 | 0.00 | 28 | 1002.2 |
| 20260906002003 | 28 | 193 | 0.0 | 3.2 | 0.00 | 0.00 | 0.00 | 28 | 1002.4 |
| 20260906001604 | 28 | 183 | 0.0 | 6.4 | 0.00 | 0.00 | 0.00 | 27 | 1002.3 |
| 20260906001002 | 28 | 174 | 0.0 | 12.9 | 0.00 | 0.00 | 0.00 | 27 | 1002.3 |
| 20260906000502 | 28 | 168 | 0.0 | 14.5 | 0.00 | 0.00 | 0.00 | 27 | 1002.2 |
| 20260906000002 | 29 | 166 | 0.0 | 14.5 | 0.00 | 0.00 | 0.00 | 27 | 1002.2 |
| 20260905235501 | 29 | 167 | 0.0 | 20.9 | 0.00 | 0.00 | 0.00 | 26 | 1002.2 |
| 20260905235004 | 29 | 164 | 1.6 | 20.9 | 0.00 | 0.00 | 0.00 | 26 | 1002.2 |
| 20260905234601 | 29 | 137 | 0.0 | 0.0 | 0.00 | 0.00 | 0.00 | 25 | 1002.2 |
| 20260905234104 | 30 | 137 | 0.0 | 0.0 | 0.00 | 0.00 | 0.00 | 23 | 1002.1 |
| 20260905233600 | 30 | 137 | 0.0 | 0.0 | 0.00 | 0.00 | 0.00 | 24 | 1002.1 |
| 20260905233105 | 30 | 137 | 0.0 | 0.0 | 0.00 | 0.00 | 0.00 | 22 | 1002.0 |
| 20260905232559 | 30 | 137 | 0.0 | 0.0 | 0.00 | 0.00 | 0.00 | 23 | 1002.0 |
| 20260905232100 | 30 | 137 | 0.0 | 8.0 | 0.00 | 0.00 | 0.00 | 22 | 1002.0 |
| 20260905231617 | 30 | 137 | 0.0 | 8.0 | 0.00 | 0.00 | 0.00 | 23 | 1002.1 |
| 20260905231100 | 30 | 137 | 0.0 | 0.0 | 0.00 | 0.00 | 0.00 | 22 | 1002.0 |
| 20260905230559 | 30 | 137 | 0.0 | 0.0 | 0.00 | 0.00 | 0.00 | 21 | 1002.0 |
| 20260905230104 | 30 | 137 | 0.0 | 0.0 | 0.00 | 0.00 | 0.00 | 22 | 1002.0 |
| 20260905225559 | 30 | 137 | 0.0 | 0.0 | 0.00 | 0.00 | 0.00 | 23 | 1002.0 |
| 20260905225058 | 30 | 137 | 0.0 | 0.0 | 0.00 | 0.00 | 0.00 | 22 | 1002.1 |
| 20260905224557 | 30 | 137 | 0.0 | 0.0 | 0.00 | 0.00 | 0.00 | 24 | 1002.0 |
| 20260905224058 | 30 | 137 | 0.0 | 0.0 | 0.00 | 0.00 | 0.00 | 23 | 1002.0 |
| 20260905223556 | 30 | 137 | 0.0 | 0.0 | 0.00 | 0.00 | 0.00 | 25 | 1002.1 |
| 20260905223056 | 30 | 137 | 0.0 | 8.0 | 0.00 | 0.00 | 0.00 | 26 | 1002.1 |
| 20260905222557 | 30 | 137 | 0.0 | 8.0 | 0.00 | 0.00 | 0.00 | 23 | 1002.2 |
| 20260905222055 | 30 | 137 | 0.0 | 0.0 | 0.00 | 0.00 | 0.00 | 23 | 1002.2 |
| 20260905221608 | 30 | 137 | 0.0 | 0.0 | 0.00 | 0.00 | 0.00 | 26 | 1002.1 |
| 20260905221055 | 30 | 137 | 0.0 | 0.0 | 0.00 | 0.00 | 0.00 | 23 | 1002.1 |
| 20260905220555 | 30 | 137 | 0.0 | 0.0 | 0.00 | 0.00 | 0.00 | 24 | 1002.2 |
| 20260905220055 | 30 | 137 | 0.0 | 0.0 | 0.00 | 0.00 | 0.00 | 22 | 1002.2 |
| 20260905215556 | 30 | 137 | 0.0 | 0.0 | 0.00 | 0.00 | 0.00 | 22 | 1002.4 |
| 20260905215056 | 31 | 137 | 0.0 | 0.0 | 0.00 | 0.00 | 0.00 | 23 | 1002.4 |